| time (UTC) | temp C | wind direction | speed KPH | gust KPH | rain 1hr cm | rain 24hr cm | rain mn cm | humidity % | barometer mb |
| 20260505041633 | 5 | 132 | 3.2 | 4.8 | 0.00 | 0.00 | 0.00 | 70 | 1000.2 |
| 20260505040123 | 5 | 132 | 0.0 | 6.4 | 0.00 | 0.00 | 0.00 | 68 | 999.9 |
| 20260505034559 | 5 | 132 | 3.2 | 6.4 | 0.00 | 0.00 | 0.00 | 70 | 1000.0 |
| 20260505033109 | 3 | 84 | 3.2 | 9.7 | 0.00 | 0.00 | 0.00 | 78 | 999.7 |
| 20260505031617 | 3 | 49 | 1.6 | 9.7 | 0.00 | 0.00 | 0.00 | 81 | 999.5 |
| 20260505030113 | 3 | 111 | 0.0 | 4.8 | 0.00 | 0.00 | 0.00 | 81 | 999.6 |
| 20260505024607 | 4 | 111 | 0.0 | 1.6 | 0.00 | 0.00 | 0.00 | 77 | 999.3 |
| 20260505023109 | 4 | 111 | 0.0 | 4.8 | 0.00 | 0.00 | 0.00 | 74 | 998.9 |
| 20260505021611 | 3 | 5 | 0.0 | 8.0 | 0.00 | 0.00 | 0.00 | 78 | 998.9 |
| 20260505020125 | 3 | 89 | 4.8 | 14.5 | 0.00 | 0.00 | 0.00 | 81 | 998.8 |
| 20260505014546 | 3 | 26 | 6.4 | 14.5 | 0.00 | 0.00 | 0.00 | 82 | 999.0 |
| 20260505013050 | 3 | 38 | 3.2 | 16.1 | 0.00 | 0.00 | 0.00 | 81 | 998.3 |
| 20260505011602 | 5 | 16 | 4.8 | 19.3 | 0.00 | 0.00 | 0.00 | 74 | 998.5 |
| 20260505010059 | 7 | 318 | 9.7 | 22.5 | 0.00 | 0.00 | 0.00 | 59 | 998.3 |
| 20260505004504 | 10 | 274 | 4.8 | 16.1 | 0.00 | 0.00 | 0.00 | 44 | 997.6 |
| 20260505003006 | 10 | 277 | 3.2 | 12.9 | 0.00 | 0.00 | 0.00 | 45 | 997.7 |
| 20260505001609 | 10 | 253 | 3.2 | 6.4 | 0.00 | 0.00 | 0.00 | 47 | 997.6 |
| 20260505000117 | 10 | 191 | 1.6 | 4.8 | 0.00 | 0.00 | 0.00 | 50 | 997.8 |
| 20260504234608 | 10 | 254 | 1.6 | 8.0 | 0.00 | 0.00 | 0.00 | 48 | 997.9 |
| 20260504233118 | 10 | 150 | 3.2 | 14.5 | 0.00 | 0.00 | 0.00 | 50 | 997.9 |
| 20260504231620 | 10 | 188 | 3.2 | 12.9 | 0.00 | 0.00 | 0.00 | 47 | 998.1 |
| 20260504230017 | 10 | 262 | 1.6 | 6.4 | 0.00 | 0.00 | 0.00 | 43 | 997.7 |
| 20260504224519 | 11 | 325 | 4.8 | 9.7 | 0.00 | 0.00 | 0.00 | 39 | 997.6 |
| 20260504223035 | 11 | 321 | 3.2 | 8.0 | 0.00 | 0.00 | 0.00 | 41 | 997.8 |
| 20260504221515 | 11 | 321 | 8.0 | 14.5 | 0.00 | 0.00 | 0.00 | 41 | 997.9 |
| 20260504220050 | 10 | 306 | 6.4 | 12.9 | 0.00 | 0.00 | 0.00 | 45 | 997.9 |
| 20260504214555 | 10 | 294 | 4.8 | 24.1 | 0.00 | 0.00 | 0.00 | 48 | 997.8 |
| 20260504213107 | 12 | 310 | 3.2 | 12.9 | 0.00 | 0.00 | 0.00 | 31 | 997.6 |
| 20260504211554 | 14 | 246 | 8.0 | 16.1 | 0.00 | 0.00 | 0.00 | 29 | 997.5 |
| 20260504204610 | 13 | 189 | 3.2 | 17.7 | 0.00 | 0.00 | 0.00 | 38 | 997.9 |
| 20260504203122 | 12 | 265 | 4.8 | 11.3 | 0.00 | 0.00 | 0.00 | 38 | 998.4 |
| 20260504201600 | 13 | 267 | 4.8 | 19.3 | 0.00 | 0.00 | 0.00 | 36 | 998.5 |
| 20260504200126 | 13 | 309 | 6.4 | 17.7 | 0.00 | 0.00 | 0.00 | 38 | 998.6 |
| 20260504194618 | 12 | 247 | 6.4 | 14.5 | 0.00 | 0.00 | 0.00 | 34 | 998.6 |
| 20260504193010 | 12 | 360 | 4.8 | 14.5 | 0.00 | 0.00 | 0.00 | 30 | 999.0 |
| 20260504191628 | 11 | 322 | 0.0 | 12.9 | 0.00 | 0.00 | 0.00 | 38 | 999.4 |
| 20260504190018 | 10 | 281 | 3.2 | 22.5 | 0.00 | 0.00 | 0.00 | 38 | 999.7 |
| 20260504184542 | 11 | 286 | 4.8 | 14.5 | 0.00 | 0.00 | 0.00 | 35 | 999.4 |
| 20260504183043 | 11 | 256 | 3.2 | 12.9 | 0.00 | 0.00 | 0.00 | 32 | 999.7 |
| 20260504181557 | 11 | 259 | 6.4 | 14.5 | 0.00 | 0.00 | 0.00 | 36 | 999.8 |
| 20260504180038 | 11 | 360 | 4.8 | 12.9 | 0.00 | 0.00 | 0.00 | 32 | 1000.0 |
| 20260504174503 | 12 | 265 | 3.2 | 9.7 | 0.00 | 0.00 | 0.00 | 35 | 1000.0 |
| 20260504173120 | 12 | 279 | 6.4 | 16.1 | 0.00 | 0.00 | 0.00 | 34 | 1000.5 |
| 20260504171619 | 12 | 281 | 4.8 | 19.3 | 0.00 | 0.00 | 0.00 | 35 | 1000.9 |
| 20260504140109 | 6 | 84 | 0.0 | 0.0 | 0.00 | 0.00 | 0.00 | 50 | 1002.5 |
| 20260504120118 | 3 | 142 | 0.0 | 0.0 | 0.00 | 0.00 | 0.00 | 53 | 1002.5 |
| 20260504100115 | 3 | 82 | 0.0 | 0.0 | 0.00 | 0.00 | 0.00 | 50 | 1002.8 |
| 20260504090118 | 3 | 80 | 3.2 | 4.8 | 0.00 | 0.00 | 0.00 | 51 | 1003.0 |
| 20260504081600 | 3 | 86 | 0.0 | 3.2 | 0.00 | 0.00 | 0.00 | 50 | 1003.6 |
| 20260504080105 | 3 | 72 | 1.6 | 4.8 | 0.00 | 0.00 | 0.00 | 50 | 1003.8 |
| 20260504044604 | 5 | 63 | 0.0 | 0.0 | 0.00 | 0.00 | 0.00 | 42 | 1004.8 |